Abilene, TX

11:37 PM CST on January 18, 2017 (GMT -0600)
Abilene Regional

Weather History for KABI - May, 2012

Change the Weather History Date:

Thursday, May 31, 2012

  Actual Average Record
Temperature  
Mean Temperature 79 °F 77 °F  
Max Temperature 88 °F 88 °F 103 °F (1998)
Min Temperature 70 °F 66 °F 50 °F (1983)
Degree Days  
Heating Degree Days 0 0  
Month to date heating degree days 5 13  
Since 1 July heating degree days 2089 2558  
Cooling Degree Days 14 12  
Month to date cooling degree days 370 264  
Year to date cooling degree days 665 397  
Growing Degree Days 30 (Base 50)    
Moisture  
Dew Point 61 °F    
Average Humidity 54    
Maximum Humidity 74    
Minimum Humidity 34    
Precipitation  
Precipitation 0.00 in 0.13 in 2.24 in (1894)
Month to date precipitation 2.31 3.18  
Year to date precipitation 8.86 8.94  
Sea Level Pressure  
Sea Level Pressure 29.80 in    
Wind  
Wind Speed 11 mph (East)    
Max Wind Speed 15 mph    
Max Gust Speed 20 mph    
Visibility 10 miles    
Events      
T = Trace of Precipitation, MM = Missing Value Source: NWS Daily Summary

Daily Weather History Graph

Daily Weather History Graph

Search for Another Location

Airport or City:

Trip Planner

Search our weather history database for the weather conditions in past years. The results will help you decide how hot, cold, wet, or windy it might be!

Date:

Astronomy

May. 31, 2012 Rise Set
Actual Time 6:32 AM CDT 8:40 PM CDT
Civil Twilight 6:04 AM CDT 9:08 PM CDT
Nautical Twilight 5:30 AM CDT 9:42 PM CDT
Astronomical Twilight 4:53 AM CDT 10:19 PM CDT
Moon 4:42 PM CDT (5/31) 3:19 AM CDT (5/31)
Length of Visible Light 15h 04m
Length of Day
14h 08m
Waxing Gibbous, 80% of the Moon is Illuminated
May 31
Waxing Gibbous
Jun 4
Full
Jun 11
Last Quarter
Jun 19
New
Jun 26
First Quarter

Hourly Weather History & Observations

Time (CDT) Temp. Heat Index Dew Point Humidity Pressure Visibility Wind Dir Wind Speed Gust Speed Precip Events Conditions
12:52 AM 78.1 °F - 66.0 °F 66% 29.70 in 10.0 mi East 8.1 mph - N/A   Clear
1:52 AM 75.9 °F - 66.0 °F 71% 29.68 in 10.0 mi SSE 8.1 mph - N/A   Clear
2:52 AM 75.0 °F - 66.0 °F 73% 29.67 in 10.0 mi SSE 11.5 mph - N/A   Clear
3:52 AM 73.9 °F - 64.9 °F 73% 29.63 in 10.0 mi South 11.5 mph - N/A   Clear
4:52 AM 73.0 °F - 64.9 °F 76% 29.71 in 10.0 mi NE 16.1 mph 25.3 mph N/A   Partly Cloudy
5:52 AM 71.1 °F - 63.0 °F 75% 29.73 in 10.0 mi East 12.7 mph - N/A   Clear
6:52 AM 72.0 °F - 59.0 °F 64% 29.77 in 10.0 mi NE 12.7 mph 17.3 mph N/A   Overcast
7:52 AM 72.0 °F - 59.0 °F 64% 29.78 in 10.0 mi East 10.4 mph - N/A   Mostly Cloudy
8:52 AM 73.9 °F - 57.9 °F 57% 29.80 in 10.0 mi SE 10.4 mph - N/A   Overcast
9:52 AM 75.9 °F - 59.0 °F 56% 29.83 in 10.0 mi East 10.4 mph - N/A   Overcast
10:52 AM 80.1 °F 81.2 °F 62.1 °F 54% 29.83 in 10.0 mi ESE 15.0 mph - N/A   Mostly Cloudy
11:52 AM 80.1 °F 81.7 °F 64.0 °F 58% 29.86 in 10.0 mi ESE 12.7 mph - N/A   Scattered Clouds
12:52 PM 81.0 °F 82.5 °F 64.0 °F 56% 29.86 in 10.0 mi ESE 12.7 mph 20.7 mph N/A   Overcast
1:52 PM 82.9 °F 83.7 °F 62.1 °F 49% 29.85 in 10.0 mi ESE 12.7 mph 20.7 mph N/A   Mostly Cloudy
2:52 PM 84.9 °F 84.4 °F 59.0 °F 41% 29.83 in 10.0 mi East 10.4 mph - N/A   Scattered Clouds
3:52 PM 88.0 °F 86.9 °F 57.9 °F 36% 29.80 in 10.0 mi Variable 4.6 mph - N/A   Clear
4:52 PM 87.1 °F 85.7 °F 55.9 °F 35% 29.80 in 10.0 mi NE 12.7 mph 16.1 mph N/A   Clear
5:52 PM 86.0 °F 84.7 °F 55.9 °F 36% 29.81 in 10.0 mi ENE 6.9 mph 16.1 mph N/A   Partly Cloudy
6:52 PM 84.0 °F 83.0 °F 55.9 °F 38% 29.82 in 10.0 mi NE 13.8 mph 18.4 mph N/A   Mostly Cloudy
7:52 PM 82.0 °F 82.1 °F 59.0 °F 45% 29.83 in 10.0 mi ENE 13.8 mph - N/A   Clear
8:52 PM 78.1 °F - 59.0 °F 52% 29.87 in 10.0 mi ENE 9.2 mph - N/A   Clear
9:52 PM 75.9 °F - 60.1 °F 58% 29.89 in 10.0 mi East 6.9 mph - N/A   Clear
10:52 PM 73.0 °F - 60.1 °F 64% 29.92 in 10.0 mi ENE 5.8 mph - N/A   Clear
11:52 PM 73.0 °F - 57.9 °F 59% 29.94 in 10.0 mi NE 13.8 mph 19.6 mph N/A   Clear